Regional Weather Roundup
Issued by NWS

Home | Current Version | Previous Version | Text Only | Print | Product List | Glossary On
Versions: 1 2 3 4 5 6 7 8 9 10 11 12 13 14 15 16 17 18 19 20 21 22 23 24 25 26 27 28 29 30 31 32 33 34 35 36 37 38 39 40 41 42 43 44 45 46 47 48 49 50
000
ASUS46 KSEW 251610
RWRWA

WASHINGTON REGIONAL WEATHER ROUNDUP
NATIONAL WEATHER SERVICE SEATTLE WA
900 AM PDT THU AUG 25 2016

NOTE:"FAIR" INDICATES FEW OR NO CLOUDS BELOW 12,000 FEET WITH NO
SIGNIFICANT WEATHER AND/OR OBSTRUCTIONS TO VISIBILITY.

WAZ505-507>509-251700-
SEATTLE, TACOMA, EVERETT, AND VICINITY

CITY           SKY/WX    TMP DP  RH WIND       PRES   REMARKS
EVERETT        SUNNY     67  52  58 CALM      30.15S
BOEING FIELD   MOSUNNY  N/A N/A N/A CALM      30.13F
RENTON         SUNNY     69  57  65 CALM      30.13S
SEATAC AIRPORT MOSUNNY   73  54  51 NE3       30.15S
JBLM-MCCHORD   SUNNY     68  55  62 CALM      30.14S
PUYALLUP       FAIR      72  54  53 CALM      30.14S
BREMERTON      SUNNY     70  48  46 NE8       30.17F
JBLM-FT LEWIS  SUNNY     69  54  57 CALM      30.13S
TACOMA NARROWS SUNNY     65  53  65 CALM      30.14F
$$

WAZ001-503-506-510-514-515-251700-
NORTH INTERIOR

CITY           SKY/WX    TMP DP  RH WIND       PRES   REMARKS
BELLINGHAM     SUNNY     68  53  58 CALM      30.14S
FRIDAY HARBOR  SUNNY     74  54  49 N8        30.15S
EASTSOUND      SUNNY     66  59  77 N5        30.14S
PORT ANGELES   SUNNY     79  47  32 E3        30.15F
EDIZ HOOK      FAIR      69  50  50 E10       30.14F
PORT TOWNSEND  FAIR      77  52  41 VRB5      30.14F
NAS WHIDBEY    MOSUNNY   67  50  54 NW3       30.18S
ARLINGTON      SUNNY     64  48  55 CALM      30.16S
BURLINGTON     SUNNY     68  54  60 NW5       30.14F
$$

WAZ020-022-039-040-504-511-512-251700-
SOUTHWEST INTERIOR

CITY           SKY/WX    TMP DP  RH WIND       PRES   REMARKS
SHELTON        SUNNY     70  48  45 CALM      30.12S
OLYMPIA        SUNNY     67  53  61 CALM      30.14S
CHEHALIS       FAIR      64  54  68 CALM      30.14S
KELSO          SUNNY     66  53  63 CALM      30.11S
VANCOUVER      SUNNY     69  52  54 CALM      30.08F
SCAPPOOSE, OR  SUNNY     71  54  54 VRB3      30.08F
PORTLAND, OR   MOSUNNY   70  54  56 CALM      30.09S
$$

WAZ021-516-517-251700-
WASHINGTON COAST

CITY           SKY/WX    TMP DP  RH WIND       PRES   REMARKS
FORKS          SUNNY     67  52  58 CALM      30.12S
HOQUIAM        SUNNY     63  57  81 E9        30.12R
ASTORIA, OR    SUNNY     71  60  68 CALM      30.08S
$$

WAZ019-023-024-040-518-519-251700-
CASCADE MOUNTAINS AND COLUMBIA GORGE

CITY           SKY/WX    TMP DP  RH WIND       PRES   REMARKS
STAMPEDE PASS  SUNNY     69  42  37 CALM      30.27S
TROUTDALE, OR  SUNNY     69  51  52 VRB3      30.08F
THE DALLES, OR SUNNY     70  41  34 CALM      30.10F
$$

WAZ026-027-041>044-520-521-251700-
EAST SLOPES

CITY           SKY/WX    TMP DP  RH WIND       PRES   REMARKS
OMAK           SUNNY     69  37  30 N14       30.17F
WENATCHEE      MOSUNNY   67  43  41 NW8       30.16F
ELLENSBURG     SUNNY     66  47  50 VRB3      30.18S
YAKIMA         SUNNY     73  43  33 W8        30.14F
$$

WAZ028-034-035-251700-
COLUMBIA BASIN

CITY           SKY/WX    TMP DP  RH WIND       PRES   REMARKS
EPHRATA        SUNNY     73  40  30 E3        30.15S
MOSES LAKE     SUNNY     71  41  33 NE8       30.16S
PASCO          SUNNY     68  47  46 N5        30.13S
HERMISTON, OR  SUNNY     68  43  40 VRB3      30.11S
$$

WAZ036>038-251700-
NORTHEAST WASHINGTON

CITY           SKY/WX    TMP DP  RH WIND       PRES   REMARKS
SPOKANE GEIGER MOSUNNY   64  42  44 NE6       30.20S
SPOKANE FELTS  SUNNY     65  43  44 CALM      30.20F
FAIRCHILD AFB  SUNNY     66  42  40 E8        30.20S
COEURDALENE,ID SUNNY     66  46  48 NE10      30.19F
DEER PARK      SUNNY     67  41  38 NE6       30.20F
$$

WAZ029>033-251700-
SOUTHEAST WASHINGTON

CITY           SKY/WX    TMP DP  RH WIND       PRES   REMARKS
PULLMAN        SUNNY     68  40  35 CALM      30.19S
LEWISTON, ID   SUNNY     67  42  40 CALM      30.15S
WALLA WALLA    SUNNY     67  43  41 SW5       30.12S
PENDLETON, OR  SUNNY     68  40  35 CALM      30.13S
$$



USA.gov is the U.S. government's official web portal to all federal, state and local government web resources and services.